TimeCST,TemperatureF,Dew PointF,Humidity,Sea Level PressureIn,VisibilityMPH,Wind Direction,Wind SpeedMPH,Gust SpeedMPH,PrecipitationIn,Events,Conditions,WindDirDegrees,DateUTC
12:53 AM,59.0,55.0,87,30.03,5.0,East,4.6,-,N/A,,Overcast,80,2012-12-07 06:53:00
1:53 AM,60.1,55.9,86,30.03,5.0,East,3.5,-,N/A,,Overcast,80,2012-12-07 07:53:00
2:53 AM,60.1,55.9,86,30.02,5.0,East,5.8,-,N/A,,Overcast,90,2012-12-07 08:53:00
3:53 AM,60.1,55.9,86,30.01,5.0,ENE,5.8,-,N/A,,Overcast,70,2012-12-07 09:53:00
4:53 AM,60.1,55.0,83,30.01,5.0,East,6.9,-,N/A,,Haze,80,2012-12-07 10:53:00
5:34 AM,59.0,55.4,88,30.04,6.0,East,6.9,-,N/A,,Overcast,90,2012-12-07 11:34:00
5:53 AM,59.0,55.0,87,30.04,6.0,ENE,6.9,-,N/A,,Overcast,70,2012-12-07 11:53:00
6:53 AM,57.9,55.0,90,30.05,5.0,East,6.9,-,N/A,,Overcast,80,2012-12-07 12:53:00
7:53 AM,57.9,54.0,87,30.06,4.0,East,5.8,-,N/A,,Overcast,80,2012-12-07 13:53:00
8:41 AM,57.2,53.6,88,30.08,5.0,East,8.1,-,N/A,,Overcast,100,2012-12-07 14:41:00
8:53 AM,59.0,54.0,83,30.07,5.0,East,5.8,-,N/A,,Haze,80,2012-12-07 14:53:00
9:53 AM,60.1,54.0,80,30.07,6.0,ESE,6.9,-,N/A,,Haze,120,2012-12-07 15:53:00
10:06 AM,59.0,53.6,82,30.07,6.0,SE,4.6,-,N/A,,Haze,130,2012-12-07 16:06:00
10:53 AM,61.0,54.0,78,30.05,6.0,SE,6.9,-,N/A,,Haze,130,2012-12-07 16:53:00
11:53 AM,61.0,54.0,78,30.02,7.0,ESE,4.6,-,N/A,,Overcast,120,2012-12-07 17:53:00
12:46 PM,64.4,55.4,73,30.00,8.0,SSE,8.1,-,N/A,,Overcast,150,2012-12-07 18:46:00
12:53 PM,63.0,54.0,72,29.99,8.0,ESE,6.9,-,N/A,,Overcast,120,2012-12-07 18:53:00
1:53 PM,64.9,54.0,68,29.97,6.0,SE,3.5,-,N/A,,Haze,130,2012-12-07 19:53:00
2:12 PM,64.4,53.6,68,29.98,6.0,Calm,Calm,-,N/A,,Haze,0,2012-12-07 20:12:00
2:19 PM,64.4,53.6,68,29.98,6.0,South,6.9,-,N/A,,Haze,190,2012-12-07 20:19:00
2:29 PM,64.4,55.4,73,29.98,6.0,South,4.6,-,N/A,,Haze,180,2012-12-07 20:29:00
2:38 PM,64.4,53.6,68,29.98,6.0,Calm,Calm,-,N/A,,Haze,0,2012-12-07 20:38:00
2:51 PM,66.2,55.4,68,29.98,6.0,Calm,Calm,-,N/A,,Haze,0,2012-12-07 20:51:00
2:53 PM,66.0,55.0,68,29.98,6.0,Calm,Calm,-,N/A,,Haze,0,2012-12-07 20:53:00
3:53 PM,63.0,55.0,75,29.98,7.0,South,5.8,-,N/A,,Overcast,190,2012-12-07 21:53:00
4:53 PM,60.1,55.0,83,29.98,7.0,Calm,Calm,-,N/A,,Scattered Clouds,0,2012-12-07 22:53:00
5:53 PM,57.0,54.0,89,29.99,6.0,Calm,Calm,-,N/A,,Clear,0,2012-12-07 23:53:00
6:53 PM,55.0,54.0,96,29.99,5.0,Calm,Calm,-,N/A,,Clear,0,2012-12-08 00:53:00
7:53 PM,54.0,51.1,90,30.00,4.0,Calm,Calm,-,N/A,,Clear,0,2012-12-08 01:53:00
7:57 PM,53.6,51.8,94,30.01,0.8,Calm,Calm,-,N/A,,Clear,0,2012-12-08 01:57:00
8:04 PM,51.8,51.8,100,30.01,0.2,Calm,Calm,-,N/A,Fog,Fog,0,2012-12-08 02:04:00
8:11 PM,51.8,51.8,100,30.01,1.0,Calm,Calm,-,N/A,,Clear,0,2012-12-08 02:11:00
8:13 PM,51.8,51.8,100,30.01,2.5,Calm,Calm,-,N/A,,Clear,0,2012-12-08 02:13:00
8:21 PM,53.6,51.8,94,30.01,4.0,Calm,Calm,-,N/A,,Clear,0,2012-12-08 02:21:00
8:53 PM,52.0,50.0,93,30.00,4.0,Calm,Calm,-,N/A,,Clear,0,2012-12-08 02:53:00
9:53 PM,48.9,48.0,97,30.02,4.0,Calm,Calm,-,N/A,,Clear,0,2012-12-08 03:53:00
10:01 PM,50.0,48.2,94,30.02,4.0,Calm,Calm,-,N/A,,Scattered Clouds,0,2012-12-08 04:01:00
10:07 PM,50.0,48.2,94,30.02,4.0,Calm,Calm,-,N/A,,Mostly Cloudy,0,2012-12-08 04:07:00
10:53 PM,54.0,52.0,93,30.02,4.0,Calm,Calm,-,N/A,,Overcast,0,2012-12-08 04:53:00
11:05 PM,53.6,51.8,94,30.02,4.0,Calm,Calm,-,N/A,,Overcast,0,2012-12-08 05:05:00
11:31 PM,53.6,53.6,100,30.02,4.0,Calm,Calm,-,N/A,,Overcast,0,2012-12-08 05:31:00
11:53 PM,55.0,53.1,93,30.01,3.0,Calm,Calm,-,N/A,,Overcast,0,2012-12-08 05:53:00